Location: C.E.K. Mees Observatory
(42.7003°N, 77.4088°W)
Time: 14:58:21
(UTC-04:00)

ISS - Pass Details

Date: 12 October 2017
Orbit: 401 x 408 km, 51.6° (Epoch: 23 October)

Event Time Altitude Azimuth Distance (km) Brightness Sun altitude
Rises 21:10:01 0° 291° (WNW) 2,325 1.2 -29.6°
Reaches altitude 10° 21:12:32 10° 272° (W) 1,463 -0.2 -30.0°
Enters shadow 21:12:59 12° 266° (W) 1,344 -0.5 -30.1°
